This demonstration page uses our WeatherBlox Daily Observations layout. Learn more.

Left ArrowRight Arrow

Hourly Observations for May 25, 2017

Temp ( °F °C ) Dew Point ( °F °C ) Humidity (%) Winds ( mph kmh ) Pressure ( in mb ) Visibility ( mi km ) Precip ( " mm )
12:53 am 00:53 Clear 70 21.1 44 6.7 39 39 SE 12 19 29.56 1001 10 16 0.00 0.00
1:53 am 01:53 Clear 67 19.4 45 7.2 45 45 SE 9 15 29.55 1001 10 16 0.00 0.00
2:53 am 02:53 Clear 64 17.8 46 7.8 52 52 SE 9 15 29.55 1001 10 16 0.00 0.00
3:53 am 03:53 Clear 62 16.7 47 8.3 58 58 SE 8 13 29.53 1000 10 16 0.00 0.00
4:53 am 04:53 Clear 59 15 47 8.3 64 64 SE 8 13 29.54 1000 10 16 0.00 0.00
5:53 am 05:53 Clear 59 15 47 8.3 64 64 SE 7 11 29.54 1001 10 16 0.00 0.00
6:53 am 06:53 Sunny 57 13.9 47 8.3 69 69 SE 5 7 29.57 1001 10 16 0.00 0.00
7:53 am 07:53 Sunny 61 16.1 47 8.3 60 60 SE 5 7 29.58 1002 10 16 0.00 0.00
8:53 am 08:53 Sunny 70 21.1 46 7.8 42 42 S 3 6 29.58 1002 10 16 0.00 0.00
9:53 am 09:53 Sunny 85 29.4 33 0.6 15 15 WSW 12 19 29.58 1002 10 16 0.00 0.00
10:53 am 10:53 Mostly Sunny 92 33.3 25 -3.9 9 9 W 21 33 29.57 1002 10 16 0.00 0.00
11:53 am 11:53 Sunny 98 36.7 22 -5.6 6 6 WNW 18 30 29.57 1002 10 16 0.00 0.00
12:53 pm 12:53 Sunny 100 37.8 23 -5 6 6 WNW 23 37 29.57 1002 10 16 0.00 0.00
1:53 pm 13:53 Sunny 96 35.6 22 -5.6 7 7 W 18 30 29.57 1001 10 16 0.00 0.00
2:53 pm 14:53 Sunny 100 37.8 17 -8.3 5 5 W 21 33 29.54 1001 10 16 0.00 0.00
3:53 pm 15:53 Sunny 99 37.2 12 -11.1 4 4 WSW 25 41 29.53 1000 10 16 0.00 0.00
4:53 pm 16:53 Sunny 99 37.2 15 -9.4 5 5 W 24 39 29.52 1000 10 16 0.00 0.00
5:53 pm 17:53 Sunny 98 36.7 17 -8.3 5 5 W 24 39 29.51 999 10 16 0.00 0.00
6:53 pm 18:53 Sunny 98 36.7 17 -8.3 5 5 W 17 28 29.52 1000 10 16 0.00 0.00
7:53 pm 19:53 Sunny 95 35 18 -7.8 6 6 W 13 20 29.52 1000 10 16 0.00 0.00
8:53 pm 20:53 Clear 91 32.8 20 -6.7 7 7 W 12 19 29.53 1000 10 16 0.00 0.00
9:53 pm 21:53 Clear 84 28.9 23 -5 10 10 W 7 11 29.54 1001 10 16 0.00 0.00
10:53 pm 22:53 Clear 79 26.1 26 -3.3 14 14 W 10 17 29.57 1001 10 16 0.00 0.00
11:53 pm 23:53 Clear 84 28.9 28 -2.2 13 13 W 8 13 29.57 1001 10 16 0.00 0.00

Powered by AerisWeather